Home   Weather   Karratha   Past weeks
Flag for Australia

Past Weather in Karratha, Western Australia, Australia — Yesterday and Last 2 Weeks

Now
76 °F

Mild.


Feels Like: 77 °F
Forecast: 90 / 75 °F
Wind: 6 mph from South

Location: Karratha Aero

Current Time: Apr 9, 2020 at 6:55:41 am

Latest Report: Apr 9, 2020 at 6:00 am


Visibility: N/A

Pressure: 29.90 "Hg

Humidity: 88%

Dew Point: 72 °F

Location of KarrathaLocation

Past Weather in Karratha — Graph

°F

Karratha Temperature Yesterday

Maximum temperature yesterday: 93 °F (at 2:00 pm)
Minimum temperature yesterday: 80 °F (at 5:00 am)
Average temperature yesterday: 86 °F

High & Low Weather Summary for the Past Weeks

 TemperatureHumidityPressure
High106 °F (Mar 29, 12:00 pm)98% (Apr 5, 6:00 am)29.92 "Hg (Apr 5, 6:00 am)
Low75 °F (Apr 2, 6:00 am)16% (Mar 29, 11:00 am)29.70 "Hg (Apr 1, 3:00 pm)
Average89 °F55%29.80 "Hg
* Reported Mar 25 5:00 am — Apr 9 5:00 am, Karratha. Weather by CustomWeather, © 2020

Note: Actual official high and low records may vary slightly from our data, if they occured in-between our weather recording intervals... More about our weather records

Karratha Weather History for the Previous 24 Hours

Scroll right to see more
 ConditionsComfort  
Time TempWeatherWind HumidityBarometerVisibility
5:00 am
Thu, Apr 9
78 °FWarm.No wind85%29.89 "HgN/A
3:00 am78 °FWarm.6 mph82%29.89 "HgN/A
2:00 am79 °FWarm.5 mph80%29.90 "HgN/A
12:00 am83 °FWarm.5 mph71%29.91 "HgN/A
11:00 pm
Wed, Apr 8
84 °FWarm.5 mph69%29.92 "HgN/A
9:00 pm85 °FWarm.8 mph66%29.91 "HgN/A
8:00 pm85 °FWarm.9 mph67%29.90 "HgN/A
6:00 pm87 °FPassing clouds.10 mph57%29.86 "HgN/A
5:00 pm89 °FHot.12 mph49%29.83 "HgN/A
3:00 pm92 °FHot.13 mph46%29.82 "HgN/A
2:00 pm93 °FExtremely hot.12 mph43%29.83 "HgN/A
12:00 pm92 °FHot.10 mph43%29.86 "HgN/A
11:00 am90 °FHot.9 mph47%29.88 "HgN/A
9:00 am87 °FWarm.6 mph57%29.89 "HgN/A
8:00 am84 °FWarm.7 mph70%29.88 "HgN/A
6:00 am82 °FOvercast.6 mph80%29.86 "HgN/A
Weather by CustomWeather, © 2020

See weather overview

Advertising